Madisonville, KY

6:39 AM CST on December 07, 2019 (GMT -0600)
Madisonville

Weather History for K2I0 - October, 2019

Change the Weather History Date:

Thursday, October 31, 2019

  Actual Average (KOWB) Record (KOWB)
Temperature  
Mean Temperature 41 °F -  
Max Temperature 52 °F 68 °F 86 °F (1987)
Min Temperature 30 °F 45 °F 26 °F (1980)
Degree Days  
Heating Degree Days 24    
Moisture  
Dew Point 33 °F    
Average Humidity 78    
Maximum Humidity 100    
Minimum Humidity 58    
Precipitation  
Precipitation 0.32 in - - ()
Sea Level Pressure  
Sea Level Pressure 30.05 in    
Wind  
Wind Speed 9 mph ()    
Max Wind Speed 25 mph    
Max Gust Speed 34 mph    
Visibility 8.5 miles    
Events Fog , Rain    
Averages and records for this station are not official NWS values.
T = Trace of Precipitation, MM = Missing Value Source: Averaged Metar Reports

Daily Weather History Graph

Daily Weather History Graph

Search for Another Location

Airport or City:

Astronomy

Oct. 31, 2019 Rise Set
Actual Time 7:13 AM CDT 5:52 PM CDT
Civil Twilight 6:46 AM CDT 6:19 PM CDT
Nautical Twilight 6:15 AM CDT 6:50 PM CDT
Astronomical Twilight 5:44 AM CDT 7:20 PM CDT
Moon 10:57 AM CDT (10/31) 8:52 PM CDT (10/31)
Length of Visible Light 11h 33m
Length of Day
10h 39m
Waxing Crescent, 16% of the Moon is Illuminated
Oct 31
Waxing Crescent
Nov 4
First Quarter
Nov 12
Full
Nov 19
Last Quarter
Nov 26
New

Hourly Weather History & Observations

Time (CDT) Temp. Windchill Dew Point Humidity Pressure Visibility Wind Dir Wind Speed Gust Speed Precip Events Conditions
12:15 AM 52.7 °F - 52.7 °F 100% 29.85 in 0.5 mi Calm Calm - N/A Fog Fog
12:35 AM 52.7 °F - 52.7 °F 100% 29.84 in 0.5 mi Calm Calm - N/A Fog Fog
12:55 AM 52.7 °F - 52.7 °F 100% 29.83 in 0.5 mi Calm Calm - N/A Fog Fog
1:15 AM 52.7 °F - 52.7 °F 100% 29.83 in 0.5 mi Calm Calm - N/A Rain Light Rain
1:35 AM 52.7 °F - 52.7 °F 100% 29.80 in 1.0 mi Calm Calm - N/A   Drizzle
1:55 AM 52.7 °F - 52.7 °F 100% 29.79 in 0.8 mi Calm Calm - N/A Rain Light Rain
2:15 AM 52.7 °F - 52.7 °F 100% 29.80 in 0.8 mi NW 3.5 mph - N/A Rain Rain
2:35 AM 52.0 °F - 52.0 °F 100% 29.83 in 1.5 mi WNW 12.7 mph - 0.02 in Rain Rain
2:55 AM 50.4 °F - 50.4 °F 100% 29.81 in 5.0 mi WNW 12.7 mph - 0.06 in Rain Rain
3:15 AM 49.5 °F - 49.5 °F 100% 29.81 in 7.0 mi NW 13.8 mph 19.6 mph 0.04 in Rain Rain
3:35 AM 48.2 °F - 48.2 °F 100% 29.80 in 10.0 mi NW 9.2 mph 18.4 mph 0.07 in Rain Rain
3:55 AM 47.5 °F - 47.5 °F 100% 29.81 in 10.0 mi NW 13.8 mph 21.9 mph 0.08 in Rain Rain
4:15 AM 46.0 °F 41.4 °F 46.0 °F 100% 29.81 in 7.0 mi WNW 9.2 mph 18.4 mph 0.04 in Rain Rain
4:35 AM 44.8 °F 39.4 °F 44.8 °F 100% 29.81 in 10.0 mi NW 10.4 mph - 0.07 in Rain Rain
4:55 AM 44.6 °F 41.4 °F 44.6 °F 100% 29.79 in 7.0 mi NNW 5.8 mph - 0.11 in Rain Rain
5:15 AM 44.2 °F 39.7 °F 44.2 °F 100% 29.83 in 10.0 mi WNW 8.1 mph - N/A Rain Rain
5:35 AM 43.9 °F 38.8 °F 41.2 °F 90% 29.84 in 5.0 mi WNW 9.2 mph 16.1 mph 0.04 in Rain Light Rain
5:55 AM 43.0 °F 35.1 °F 39.0 °F 86% 29.86 in 5.0 mi WNW 17.3 mph 25.3 mph 0.05 in Rain Rain
6:15 AM 42.1 °F 34.5 °F 37.8 °F 85% 29.86 in 7.0 mi NW 15.0 mph 28.8 mph 0.01 in Rain Light Rain
6:35 AM 41.7 °F 32.6 °F 37.2 °F 84% 29.88 in 7.0 mi WNW 20.7 mph 27.6 mph 0.02 in Rain Light Rain
6:55 AM 40.8 °F 33.3 °F 35.8 °F 82% 29.87 in 10.0 mi WNW 13.8 mph 20.7 mph 0.02 in Rain Rain
7:15 AM 40.1 °F 33.2 °F 34.9 °F 82% 29.91 in 10.0 mi WNW 11.5 mph 26.5 mph N/A   Overcast
7:35 AM 40.1 °F 32.4 °F 35.6 °F 84% 29.90 in 10.0 mi WNW 13.8 mph 17.3 mph N/A Rain Light Rain
7:55 AM 39.4 °F 30.7 °F 34.5 °F 83% 29.89 in 10.0 mi WNW 16.1 mph 24.2 mph N/A   Overcast
8:15 AM 39.2 °F 30.8 °F 34.5 °F 83% 29.90 in 10.0 mi WNW 15.0 mph 25.3 mph N/A   Overcast
8:35 AM 38.8 °F 27.8 °F 33.6 °F 82% 29.93 in 10.0 mi WNW 25.3 mph 34.5 mph N/A   Overcast
8:55 AM 38.3 °F 29.7 °F 32.7 °F 80% 29.94 in 7.0 mi NW 15.0 mph 29.9 mph N/A   Overcast
9:15 AM 37.9 °F 27.3 °F 32.0 °F 79% 29.95 in 10.0 mi WNW 21.9 mph 29.9 mph N/A   Overcast
9:35 AM 38.1 °F 29.8 °F 32.0 °F 79% 29.97 in 10.0 mi WNW 13.8 mph 24.2 mph N/A   Overcast
9:55 AM 37.9 °F 27.9 °F 31.3 °F 77% 29.98 in 10.0 mi WNW 19.6 mph 27.6 mph N/A   Overcast
10:15 AM 37.0 °F 27.4 °F 32.0 °F 82% 30.00 in 7.0 mi WNW 17.3 mph 25.3 mph N/A Rain Light Rain
10:35 AM 37.2 °F 27.9 °F 31.1 °F 79% 30.01 in 10.0 mi WNW 16.1 mph 27.6 mph N/A   Overcast
10:55 AM 36.9 °F 26.5 °F 30.9 °F 79% 30.02 in 10.0 mi WNW 19.6 mph 27.6 mph N/A   Overcast
11:15 AM 37.2 °F 27.3 °F 30.9 °F 78% 30.04 in 10.0 mi WNW 18.4 mph 24.2 mph N/A   Overcast
11:35 AM 37.0 °F 28.5 °F 30.2 °F 76% 30.05 in 10.0 mi WNW 13.8 mph 27.6 mph N/A   Overcast
11:55 AM 37.4 °F 29.3 °F 29.8 °F 74% 30.05 in 10.0 mi WNW 12.7 mph 23.0 mph N/A   Overcast
12:15 PM 37.9 °F 28.5 °F 29.8 °F 73% 30.05 in 10.0 mi WNW 17.3 mph 21.9 mph N/A   Overcast
12:35 PM 38.5 °F 28.6 °F 29.5 °F 70% 30.06 in 10.0 mi WNW 19.6 mph 26.5 mph N/A   Overcast
12:55 PM 38.3 °F 29.0 °F 29.3 °F 70% 30.06 in 10.0 mi WNW 17.3 mph 23.0 mph N/A   Overcast
1:15 PM 38.1 °F 28.8 °F 29.3 °F 71% 30.07 in 10.0 mi WNW 17.3 mph 23.0 mph N/A   Overcast
1:35 PM 37.8 °F 31.3 °F 28.4 °F 69% 30.07 in 10.0 mi WNW 9.2 mph 23.0 mph N/A   Overcast
1:55 PM 38.3 °F 29.3 °F 27.9 °F 66% 30.08 in 10.0 mi WNW 16.1 mph 29.9 mph N/A   Overcast
2:15 PM 38.3 °F 28.1 °F 27.7 °F 66% 30.09 in 10.0 mi WNW 20.7 mph 28.8 mph N/A   Overcast
2:35 PM 38.3 °F 30.5 °F 27.7 °F 66% 30.11 in 10.0 mi WNW 12.7 mph 23.0 mph N/A   Overcast
2:55 PM 37.9 °F 27.6 °F 27.0 °F 65% 30.13 in 10.0 mi WNW 20.7 mph 32.2 mph N/A   Overcast
3:15 PM 37.4 °F 27.8 °F 27.5 °F 67% 30.14 in 10.0 mi WNW 17.3 mph 27.6 mph N/A   Overcast
3:35 PM 37.4 °F 27.5 °F 26.2 °F 64% 30.16 in 10.0 mi West 18.4 mph 24.2 mph N/A   Overcast
3:55 PM 36.9 °F 26.8 °F 26.6 °F 66% 30.17 in 10.0 mi WNW 18.4 mph - N/A   Overcast
4:15 PM 36.9 °F 28.7 °F 25.2 °F 63% 30.19 in 10.0 mi WNW 12.7 mph 26.5 mph N/A   Overcast
4:35 PM 36.9 °F 28.2 °F 24.6 °F 61% 30.20 in 10.0 mi WNW 13.8 mph 21.9 mph N/A   Overcast
4:55 PM 37.0 °F 28.1 °F 25.0 °F 62% 30.21 in 10.0 mi WNW 15.0 mph 20.7 mph N/A   Overcast
5:15 PM 36.9 °F 26.8 °F 23.9 °F 59% 30.21 in 10.0 mi NW 18.4 mph 25.3 mph N/A   Overcast
5:35 PM 36.5 °F 30.3 °F 24.3 °F 61% 30.23 in 10.0 mi WNW 8.1 mph 20.7 mph N/A   Overcast
5:55 PM 36.5 °F 29.7 °F 24.8 °F 63% 30.24 in 10.0 mi WNW 9.2 mph - N/A   Overcast
6:15 PM 36.5 °F 28.7 °F 25.2 °F 64% 30.24 in 10.0 mi WNW 11.5 mph 17.3 mph N/A   Overcast
6:35 PM 36.5 °F 27.8 °F 23.7 °F 60% 30.26 in 10.0 mi NW 13.8 mph 17.3 mph N/A   Overcast
6:55 PM 36.0 °F 29.0 °F 22.6 °F 58% 30.26 in 10.0 mi NW 9.2 mph 16.1 mph N/A   Overcast
7:15 PM 35.8 °F 28.8 °F 23.4 °F 61% 30.27 in 10.0 mi NW 9.2 mph - N/A   Overcast
7:35 PM 35.8 °F 27.3 °F 23.9 °F 62% 30.27 in 10.0 mi WNW 12.7 mph - N/A   Overcast
7:55 PM 35.8 °F 28.8 °F 23.5 °F 61% 30.29 in 10.0 mi NW 9.2 mph 18.4 mph N/A   Overcast
8:15 PM 35.8 °F 28.3 °F 23.2 °F 60% 30.31 in 10.0 mi NW 10.4 mph - N/A   Overcast
8:35 PM 35.8 °F 28.3 °F 23.4 °F 61% 30.32 in 10.0 mi WNW 10.4 mph 17.3 mph N/A   Overcast
8:55 PM 35.6 °F 30.7 °F 24.1 °F 63% 30.32 in 10.0 mi NW 5.8 mph - N/A   Overcast
9:15 PM 34.2 °F 29.0 °F 23.9 °F 66% 30.33 in 10.0 mi WNW 5.8 mph - N/A   Mostly Cloudy
9:35 PM 33.3 °F 30.2 °F 24.6 °F 71% 30.33 in 10.0 mi NW 3.5 mph - N/A   Scattered Clouds
9:55 PM 32.5 °F - 24.8 °F 73% 30.33 in 10.0 mi Calm Calm - N/A   Clear
10:15 PM 32.2 °F 28.9 °F 24.8 °F 74% 30.34 in 10.0 mi West 3.5 mph - N/A   Clear
10:35 PM 31.8 °F 28.5 °F 24.8 °F 75% 30.34 in 10.0 mi WSW 3.5 mph - N/A   Clear
10:55 PM 30.0 °F 26.5 °F 24.8 °F 81% 30.34 in 10.0 mi SW 3.5 mph - N/A   Clear
11:15 PM 30.2 °F 24.3 °F 24.6 °F 80% 30.34 in 10.0 mi SW 5.8 mph - N/A   Clear
11:35 PM 30.2 °F 25.4 °F 24.8 °F 80% 30.34 in 10.0 mi SW 4.6 mph - N/A   Clear